Regional Weather Roundup
Issued by NWS

Home | Current Version | Previous Version | Text Only | Print | Product List | Glossary Off
Versions: 1 2 3 4 5 6 7 8 9 10 11 12 13 14 15 16 17 18 19 20 21 22 23 24 25 26 27 28 29 30 31 32 33 34 35 36 37 38 39 40 41 42 43 44 45 46 47 48 49 50

000
ASUS43 KLSX 171159
RWRMO

WEATHER SUMMARY FOR MISSOURI
NATIONAL WEATHER SERVICE SPRINGFIELD MO
700 AM CDT THU APR 17 2014

NOTE: "FAIR" INDICATES FEW OR NO CLOUDS BELOW 12,000 FEET WITH NO
       SIGNIFICANT WEATHER AND/OR OBSTRUCTIONS TO VISIBILITY.
       CURRENT SKY AND/OR WEATHER CONDITIONS ARE NOT AVAILABLE FOR
       CHILLICOTHE AND FARMINGTON.

MOZ001>031-035>038-043-044-053-054-171300-
...NORTHERN AND WESTERN MISSOURI...

CITY           SKY/WX    TMP DP  RH WIND       PRES   REMARKS
KANSAS CTY INT CLOUDY    38  30  73 N9        30.21R
6HR MIN TEMP:  38; 6HR MAX TEMP:  41;

KANSAS C DTWN  CLOUDY    41  31  67 N7        30.22R
6HR MIN TEMP:  40; 6HR MAX TEMP:  45;

LEE`S SUMMIT   CLOUDY    39  31  72 N13       30.20R
6HR MIN TEMP:  39; 6HR MAX TEMP:  46;

ST JOSEPH      CLOUDY    37  29  72 N15       30.25R WCI  28
6HR MIN TEMP:  37; 6HR MAX TEMP:  40;

CHILLICOTHE      N/A     40  31  70 NW6       30.22R
6HR MIN TEMP:  40; 6HR MAX TEMP:  45;

KIRKSVILLE     CLOUDY    39  33  79 N7        30.19R
6HR MIN TEMP:  36; 6HR MAX TEMP:  50;


$$
MOZ066>068-077>081-088>096-101>105-171300-
...SOUTHWEST MISSOURI...

CITY           SKY/WX    TMP DP  RH WIND       PRES   REMARKS
SPRINGFIELD    MOCLDY    42  31  64 S9        30.17R
6HR MIN TEMP:  40; 6HR MAX TEMP:  48;

JOPLIN         CLOUDY    42  34  73 S5        30.18R
6HR MIN TEMP:  40; 6HR MAX TEMP:  51;


$$
MOZ032>034-039>042-045>050-055>058-069>072-171300-
...CENTRAL MISSOURI...

CITY           SKY/WX    TMP DP  RH WIND       PRES   REMARKS
COLUMBIA       MOCLDY    44  34  67 NW8       30.18R
6HR MIN TEMP:  42; 6HR MAX TEMP:  48;

JEFFERSON CITY PTCLDY    45  31  58 NW3       30.18R
6HR MIN TEMP:  45; 6HR MAX TEMP:  50;

ROLLA          CLEAR     41  31  67 S13       30.16R
6HR MIN TEMP:  40; 6HR MAX TEMP:  45;

SEDALIA        CLOUDY    42  35  76 N10       30.20R
6HR MIN TEMP:  42; 6HR MAX TEMP:  52;

OSAGE BEACH    PTCLDY    39  30  70 S3        30.19R

$$
MOZ051-052-059>065-171300-
...EAST CENTRAL MISSOURI...

CITY           SKY/WX    TMP DP  RH WIND       PRES   REMARKS
ST LOUIS INTL  MOCLDY    46  30  53 CALM      30.19R
6HR MIN TEMP:  45; 6HR MAX TEMP:  49;

SPIRIT OF STL  CLEAR     43  32  65 W3        30.18R
6HR MIN TEMP:  37; 6HR MAX TEMP:  47;

ST CHARLES     CLEAR     39  32  76 SE3       30.18R
6HR MIN TEMP:  37; 6HR MAX TEMP:  44;


$$
MOZ072>076-082>087-097>100-106>115-171300-
...SOUTH CENTRAL AND SOUTHEAST MISSOURI...

CITY           SKY/WX    TMP DP  RH WIND       PRES   REMARKS
CAPE GIRARDEAU CLEAR     36  34  92 E3        30.25R
6HR MIN TEMP:  34; 6HR MAX TEMP:  43;

FARMINGTON     PTCLDY    41  28  60 SE6       30.22R
6HR MIN TEMP:  37; 6HR MAX TEMP:  43;

POPLAR BLUFF   CLEAR     37  32  82 CALM      30.23R
6HR MIN TEMP:  36; 6HR MAX TEMP:  42;

WEST PLAINS    CLEAR     39  30  70 SW3       30.21R
6HR MIN TEMP:  39; 6HR MAX TEMP:  44;


$$



USA.gov is the U.S. government's official web portal to all federal, state and local government web resources and services.